TimeCDT,TemperatureF,Dew PointF,Humidity,Sea Level PressureIn,VisibilityMPH,Wind Direction,Wind SpeedMPH,Gust SpeedMPH,PrecipitationIn,Events,Conditions,WindDirDegrees,DateUTC
12:53 AM,72.0,66.0,81,29.96,10.0,Calm,Calm,-,N/A,,Clear,0,2013-06-15 05:53:00
1:53 AM,70.0,66.0,87,29.95,10.0,NE,4.6,-,N/A,,Clear,40,2013-06-15 06:53:00
2:53 AM,69.1,66.0,90,29.96,10.0,Calm,Calm,-,N/A,,Clear,0,2013-06-15 07:53:00
3:53 AM,70.0,66.0,87,29.95,10.0,Calm,Calm,-,N/A,,Clear,0,2013-06-15 08:53:00
4:53 AM,68.0,66.0,93,29.96,9.0,Calm,Calm,-,N/A,,Clear,0,2013-06-15 09:53:00
5:53 AM,66.9,66.0,97,29.97,10.0,Calm,Calm,-,N/A,,Clear,0,2013-06-15 10:53:00
6:53 AM,70.0,66.0,87,29.99,10.0,South,3.5,-,N/A,,Clear,190,2013-06-15 11:53:00
7:53 AM,71.1,66.9,87,30.01,10.0,Calm,Calm,-,N/A,,Clear,0,2013-06-15 12:53:00
8:53 AM,77.0,68.0,74,30.01,10.0,East,4.6,-,N/A,,Clear,100,2013-06-15 13:53:00
9:53 AM,82.0,66.9,60,30.01,10.0,ESE,6.9,-,N/A,,Clear,120,2013-06-15 14:53:00
10:53 AM,86.0,68.0,55,30.01,10.0,East,3.5,-,N/A,,Clear,90,2013-06-15 15:53:00
11:53 AM,84.9,69.1,59,30.01,10.0,South,3.5,-,N/A,,Clear,190,2013-06-15 16:53:00
12:53 PM,87.1,70.0,57,30.00,10.0,SE,4.6,-,N/A,,Scattered Clouds,130,2013-06-15 17:53:00
1:53 PM,91.0,68.0,47,29.99,10.0,NE,4.6,-,N/A,,Clear,40,2013-06-15 18:53:00
2:53 PM,91.0,68.0,47,29.97,10.0,Variable,3.5,-,N/A,,Clear,0,2013-06-15 19:53:00
3:53 PM,88.0,70.0,55,29.95,10.0,SSE,3.5,-,N/A,,Partly Cloudy,160,2013-06-15 20:53:00
4:53 PM,91.0,68.0,47,29.94,10.0,ESE,8.1,-,N/A,,Scattered Clouds,110,2013-06-15 21:53:00
5:53 PM,91.0,66.0,44,29.93,10.0,East,5.8,-,N/A,,Clear,80,2013-06-15 22:53:00
6:53 PM,89.1,66.9,48,29.92,10.0,East,5.8,-,N/A,,Clear,90,2013-06-15 23:53:00
7:23 PM,87.8,69.8,55,29.91,10.0,East,5.8,-,N/A,,Partly Cloudy,80,2013-06-16 00:23:00
7:53 PM,84.9,69.1,59,29.93,10.0,East,4.6,-,N/A,,Clear,80,2013-06-16 00:53:00
8:53 PM,79.0,71.1,77,29.94,10.0,Calm,Calm,-,N/A,,Clear,0,2013-06-16 01:53:00
9:53 PM,78.1,71.1,79,29.96,10.0,Calm,Calm,-,N/A,,Clear,0,2013-06-16 02:53:00
10:53 PM,78.1,72.0,81,29.99,10.0,Calm,Calm,-,N/A,,Clear,0,2013-06-16 03:53:00
11:53 PM,78.1,72.0,81,29.99,10.0,Calm,Calm,-,N/A,,Clear,0,2013-06-16 04:53:00